Time,TemperatureF,DewpointF,PressureIn,WindDirection,WindDirectionDegrees,WindSpeedMPH,WindSpeedGustMPH,Humidity,HourlyPrecipIn,Conditions,Clouds,dailyrainin,SoftwareType,DateUTC
2013-02-23 00:00:00,29.4,24.9,29.41,West,267,5.0,6.0,83,0.00,,,0.00,WeatherCatV1.02B3,2013-02-23 05:00:00,
2013-02-23 00:05:00,29.4,24.9,29.41,WSW,250,3.0,7.0,83,0.00,,,0.00,WeatherCatV1.02B3,2013-02-23 05:05:00,
2013-02-23 00:10:00,29.3,24.8,29.41,WSW,242,4.0,7.0,83,0.00,,,0.00,WeatherCatV1.02B3,2013-02-23 05:10:00,
2013-02-23 00:15:00,29.3,24.8,29.41,WSW,245,6.0,6.0,83,0.00,,,0.00,WeatherCatV1.02B3,2013-02-23 05:15:00,
2013-02-23 00:20:00,29.2,25.0,29.42,WSW,240,3.0,6.0,84,0.00,,,0.00,WeatherCatV1.02B3,2013-02-23 05:20:00,
2013-02-23 00:25:00,29.2,25.0,29.42,SW,236,6.0,10.0,84,0.00,,,0.00,WeatherCatV1.02B3,2013-02-23 05:25:00,
2013-02-23 00:30:00,29.1,24.9,29.42,WSW,250,5.0,8.0,84,0.00,,,0.00,WeatherCatV1.02B3,2013-02-23 05:30:00,
2013-02-23 00:35:00,29.1,24.9,29.41,SSW,200,4.0,6.0,84,0.00,,,0.00,WeatherCatV1.02B3,2013-02-23 05:35:00,
2013-02-23 00:40:00,29.0,24.8,29.41,WSW,249,4.0,8.0,84,0.00,,,0.00,WeatherCatV1.02B3,2013-02-23 05:40:00,
2013-02-23 00:45:00,29.0,24.8,29.41,West,267,4.0,10.0,84,0.00,,,0.00,WeatherCatV1.02B3,2013-02-23 05:45:00,
2013-02-23 00:50:00,29.0,24.8,29.41,SW,227,6.0,6.0,84,0.00,,,0.00,WeatherCatV1.02B3,2013-02-23 05:50:00,
2013-02-23 00:55:00,28.9,24.7,29.41,SW,228,4.0,5.0,84,0.00,,,0.00,WeatherCatV1.02B3,2013-02-23 05:55:00,
2013-02-23 01:00:00,28.8,24.9,29.41,SW,231,5.0,8.0,85,0.00,,,0.00,WeatherCatV1.02B3,2013-02-23 06:00:00,
2013-02-23 01:05:00,28.8,24.9,29.41,WSW,252,3.0,6.0,85,0.00,,,0.00,WeatherCatV1.02B3,2013-02-23 06:05:00,
2013-02-23 01:10:00,28.8,24.9,29.41,West,263,3.0,8.0,85,0.00,,,0.00,WeatherCatV1.02B3,2013-02-23 06:10:00,
2013-02-23 01:15:00,28.7,24.8,29.41,WSW,246,6.0,7.0,85,0.00,,,0.00,WeatherCatV1.02B3,2013-02-23 06:15:00,
2013-02-23 01:17:00,28.7,24.8,29.41,SW,225,3.0,7.0,85,0.00,,,0.00,WeatherCatV1.02B3,2013-02-23 06:17:00,
2013-02-23 01:22:00,28.7,24.8,29.41,WSW,257,3.0,6.0,85,0.00,,,0.00,WeatherCatV1.02B3,2013-02-23 06:22:00,
2013-02-23 01:27:00,28.6,24.7,29.41,West,263,5.0,6.0,85,0.00,,,0.00,WeatherCatV1.02B3,2013-02-23 06:27:00,
2013-02-23 01:32:00,28.6,24.7,29.41,WSW,243,4.0,4.0,85,0.00,,,0.00,WeatherCatV1.02B3,2013-02-23 06:32:00,
2013-02-23 01:37:00,28.5,24.6,29.41,WSW,238,5.0,7.0,85,0.00,,,0.00,WeatherCatV1.02B3,2013-02-23 06:37:00,
2013-02-23 01:42:00,28.5,24.6,29.41,WSW,240,6.0,6.0,85,0.00,,,0.00,WeatherCatV1.02B3,2013-02-23 06:42:00,
2013-02-23 01:47:00,28.4,24.5,29.41,WSW,246,4.0,6.0,85,0.00,,,0.00,WeatherCatV1.02B3,2013-02-23 06:47:00,
2013-02-23 01:52:00,28.3,24.7,29.41,WSW,240,5.0,8.0,86,0.00,,,0.00,WeatherCatV1.02B3,2013-02-23 06:52:00,
2013-02-23 01:57:00,28.3,24.7,29.41,WSW,242,5.0,8.0,86,0.00,,,0.00,WeatherCatV1.02B3,2013-02-23 06:57:00,
2013-02-23 02:02:00,28.3,24.7,29.41,WSW,243,4.0,7.0,86,0.00,,,0.00,WeatherCatV1.02B3,2013-02-23 07:02:00,
2013-02-23 02:07:00,28.3,24.7,29.41,WSW,238,4.0,7.0,86,0.00,,,0.00,WeatherCatV1.02B3,2013-02-23 07:07:00,
2013-02-23 02:12:00,28.2,24.6,29.41,SSW,201,4.0,7.0,86,0.00,,,0.00,WeatherCatV1.02B3,2013-02-23 07:12:00,
2013-02-23 02:17:00,28.2,24.6,29.41,SW,236,3.0,5.0,86,0.00,,,0.00,WeatherCatV1.02B3,2013-02-23 07:17:00,
2013-02-23 02:22:00,28.2,24.6,29.41,SW,219,4.0,5.0,86,0.00,,,0.00,WeatherCatV1.02B3,2013-02-23 07:22:00,
2013-02-23 02:27:00,28.1,24.2,29.41,WSW,242,4.0,9.0,85,0.00,,,0.00,WeatherCatV1.02B3,2013-02-23 07:27:00,
2013-02-23 02:32:00,28.1,24.5,29.41,WSW,238,3.0,7.0,86,0.00,,,0.00,WeatherCatV1.02B3,2013-02-23 07:32:00,
2013-02-23 02:37:00,28.1,24.5,29.41,West,260,4.0,7.0,86,0.00,,,0.00,WeatherCatV1.02B3,2013-02-23 07:37:00,
2013-02-23 02:42:00,28.0,24.4,29.41,SW,219,6.0,6.0,86,0.00,,,0.00,WeatherCatV1.02B3,2013-02-23 07:42:00,
2013-02-23 02:47:00,28.0,24.4,29.41,SW,225,3.0,6.0,86,0.00,,,0.00,WeatherCatV1.02B3,2013-02-23 07:47:00,
2013-02-23 02:52:00,28.0,24.4,29.41,South,186,2.0,6.0,86,0.00,,,0.00,WeatherCatV1.02B3,2013-02-23 07:52:00,
2013-02-23 02:57:00,27.9,24.3,29.41,West,274,4.0,7.0,86,0.00,,,0.00,WeatherCatV1.02B3,2013-02-23 07:57:00,
2013-02-23 03:02:00,27.9,24.3,29.41,West,262,2.0,8.0,86,0.00,,,0.00,WeatherCatV1.02B3,2013-02-23 08:02:00,
2013-02-23 03:07:00,27.9,24.3,29.41,South,177,4.0,10.0,86,0.00,,,0.00,WeatherCatV1.02B3,2013-02-23 08:07:00,
2013-02-23 03:12:00,27.8,24.2,29.41,West,271,5.0,6.0,86,0.00,,,0.00,WeatherCatV1.02B3,2013-02-23 08:12:00,
2013-02-23 03:13:00,27.8,24.2,29.41,WSW,249,3.0,6.0,86,0.00,,,0.00,WeatherCatV1.02B3,2013-02-23 08:13:00,
2013-02-23 03:18:00,27.8,24.2,29.41,WSW,253,2.0,5.0,86,0.00,,,0.00,WeatherCatV1.02B3,2013-02-23 08:18:00,
2013-02-23 03:23:00,27.7,24.1,29.41,WSW,241,5.0,7.0,86,0.00,,,0.00,WeatherCatV1.02B3,2013-02-23 08:23:00,
2013-02-23 03:28:00,27.7,24.1,29.41,WSW,242,5.0,6.0,86,0.00,,,0.00,WeatherCatV1.02B3,2013-02-23 08:28:00,
2013-02-23 03:33:00,27.7,24.1,29.41,West,269,3.0,7.0,86,0.00,,,0.00,WeatherCatV1.02B3,2013-02-23 08:33:00,
2013-02-23 03:38:00,27.7,24.1,29.41,SW,231,5.0,5.0,86,0.00,,,0.00,WeatherCatV1.02B3,2013-02-23 08:38:00,
2013-02-23 03:43:00,27.7,24.1,29.41,SW,214,3.0,5.0,86,0.00,,,0.00,WeatherCatV1.02B3,2013-02-23 08:43:00,
2013-02-23 03:48:00,27.7,24.1,29.41,SSW,198,1.0,5.0,86,0.00,,,0.00,WeatherCatV1.02B3,2013-02-23 08:48:00,
2013-02-23 03:53:00,27.6,24.0,29.40,WSW,245,3.0,5.0,86,0.00,,,0.00,WeatherCatV1.02B3,2013-02-23 08:53:00,
2013-02-23 03:58:00,27.6,24.0,29.41,WNW,284,4.0,6.0,86,0.00,,,0.00,WeatherCatV1.02B3,2013-02-23 08:58:00,
2013-02-23 04:02:00,27.6,24.0,29.41,SW,228,1.0,9.0,86,0.00,,,0.00,WeatherCatV1.02B3,2013-02-23 09:02:00,
2013-02-23 04:07:00,27.5,23.9,29.41,SW,222,3.0,6.0,86,0.00,,,0.00,WeatherCatV1.02B3,2013-02-23 09:07:00,
2013-02-23 04:12:00,27.5,23.9,29.41,WSW,240,2.0,6.0,86,0.00,,,0.00,WeatherCatV1.02B3,2013-02-23 09:12:00,
2013-02-23 04:17:00,27.5,23.9,29.41,WSW,257,3.0,6.0,86,0.00,,,0.00,WeatherCatV1.02B3,2013-02-23 09:17:00,
2013-02-23 04:22:00,27.5,23.9,29.41,West,263,3.0,7.0,86,0.00,,,0.00,WeatherCatV1.02B3,2013-02-23 09:22:00,
2013-02-23 04:27:00,27.5,23.9,29.41,WSW,250,1.0,2.0,86,0.00,,,0.00,WeatherCatV1.02B3,2013-02-23 09:27:00,
2013-02-23 04:32:00,27.5,23.9,29.41,SW,229,3.0,5.0,86,0.00,,,0.00,WeatherCatV1.02B3,2013-02-23 09:32:00,
2013-02-23 04:37:00,27.5,23.9,29.41,West,262,2.0,5.0,86,0.00,,,0.00,WeatherCatV1.02B3,2013-02-23 09:37:00,
2013-02-23 04:42:00,27.4,23.8,29.41,West,262,4.0,5.0,86,0.00,,,0.00,WeatherCatV1.02B3,2013-02-23 09:42:00,
2013-02-23 04:47:00,27.4,23.8,29.41,WSW,240,4.0,5.0,86,0.00,,,0.00,WeatherCatV1.02B3,2013-02-23 09:47:00,
2013-02-23 04:52:00,27.4,23.8,29.41,SW,224,6.0,6.0,86,0.00,,,0.00,WeatherCatV1.02B3,2013-02-23 09:52:00,
2013-02-23 04:57:00,27.4,23.5,29.41,SW,229,2.0,6.0,85,0.00,,,0.00,WeatherCatV1.02B3,2013-02-23 09:57:00,
2013-02-23 05:02:00,27.4,23.8,29.41,WSW,238,4.0,5.0,86,0.00,,,0.00,WeatherCatV1.02B3,2013-02-23 10:02:00,
2013-02-23 05:07:00,27.3,23.7,29.42,WSW,256,4.0,6.0,86,0.00,,,0.00,WeatherCatV1.02B3,2013-02-23 10:07:00,
2013-02-23 05:12:00,27.3,23.7,29.42,WSW,258,2.0,4.0,86,0.00,,,0.00,WeatherCatV1.02B3,2013-02-23 10:12:00,
2013-02-23 05:17:00,27.1,23.5,29.42,SW,236,4.0,4.0,86,0.00,,,0.00,WeatherCatV1.02B3,2013-02-23 10:17:00,
2013-02-23 05:22:00,27.0,23.4,29.41,SW,217,2.0,4.0,86,0.00,,,0.00,WeatherCatV1.02B3,2013-02-23 10:22:00,
2013-02-23 05:27:00,26.8,23.2,29.41,SW,218,3.0,4.0,86,0.00,,,0.00,WeatherCatV1.02B3,2013-02-23 10:27:00,
2013-02-23 05:32:00,26.7,23.1,29.41,WSW,248,2.0,5.0,86,0.00,,,0.00,WeatherCatV1.02B3,2013-02-23 10:32:00,
2013-02-23 05:37:00,26.6,23.0,29.42,WSW,246,2.0,6.0,86,0.00,,,0.00,WeatherCatV1.02B3,2013-02-23 10:37:00,
2013-02-23 05:42:00,26.5,22.9,29.42,SW,231,2.0,4.0,86,0.00,,,0.00,WeatherCatV1.02B3,2013-02-23 10:42:00,
2013-02-23 05:47:00,26.6,23.0,29.42,SW,231,4.0,5.0,86,0.00,,,0.00,WeatherCatV1.02B3,2013-02-23 10:47:00,
2013-02-23 05:52:00,26.6,23.0,29.42,SW,232,5.0,6.0,86,0.00,,,0.00,WeatherCatV1.02B3,2013-02-23 10:52:00,
2013-02-23 05:57:00,26.7,22.8,29.42,SW,232,3.0,5.0,85,0.00,,,0.00,WeatherCatV1.02B3,2013-02-23 10:57:00,
2013-02-23 06:02:00,26.8,22.9,29.42,West,273,3.0,5.0,85,0.00,,,0.00,WeatherCatV1.02B3,2013-02-23 11:02:00,
2013-02-23 06:07:00,26.8,22.9,29.42,SSE,166,3.0,5.0,85,0.00,,,0.00,WeatherCatV1.02B3,2013-02-23 11:07:00,
2013-02-23 06:12:00,26.8,22.9,29.42,West,263,5.0,7.0,85,0.00,,,0.00,WeatherCatV1.02B3,2013-02-23 11:12:00,
2013-02-23 06:17:00,26.7,22.8,29.42,WSW,238,5.0,9.0,85,0.00,,,0.00,WeatherCatV1.02B3,2013-02-23 11:17:00,
2013-02-23 06:22:00,26.7,22.8,29.42,WSW,238,5.0,8.0,85,0.00,,,0.00,WeatherCatV1.02B3,2013-02-23 11:22:00,
2013-02-23 06:27:00,26.6,23.0,29.42,WSW,240,2.0,3.0,86,0.00,,,0.00,WeatherCatV1.02B3,2013-02-23 11:27:00,
2013-02-23 06:32:00,26.5,22.9,29.43,WSW,240,2.0,4.0,86,0.00,,,0.00,WeatherCatV1.02B3,2013-02-23 11:32:00,
2013-02-23 06:37:00,26.5,22.9,29.43,West,276,2.0,3.0,86,0.00,,,0.00,WeatherCatV1.02B3,2013-02-23 11:37:00,
2013-02-23 06:42:00,26.5,22.9,29.43,SW,219,5.0,8.0,86,0.00,,,0.00,WeatherCatV1.02B3,2013-02-23 11:42:00,
2013-02-23 06:47:00,26.5,22.6,29.43,WSW,243,3.0,8.0,85,0.00,,,0.00,WeatherCatV1.02B3,2013-02-23 11:47:00,
2013-02-23 06:52:00,26.6,22.7,29.43,West,269,4.0,7.0,85,0.00,,,0.00,WeatherCatV1.02B3,2013-02-23 11:52:00,
2013-02-23 06:57:00,26.5,22.6,29.43,West,269,4.0,7.0,85,0.00,,,0.00,WeatherCatV1.02B3,2013-02-23 11:57:00,
2013-02-23 07:02:00,26.6,22.7,29.43,West,263,3.0,5.0,85,0.00,,,0.00,WeatherCatV1.02B3,2013-02-23 12:02:00,
2013-02-23 07:07:00,26.6,22.4,29.44,West,263,2.0,8.0,84,0.00,,,0.00,WeatherCatV1.02B3,2013-02-23 12:07:00,
2013-02-23 07:12:00,26.5,22.3,29.44,WSW,252,5.0,6.0,84,0.00,,,0.00,WeatherCatV1.02B3,2013-02-23 12:12:00,
2013-02-23 07:17:00,26.5,22.3,29.44,SW,232,6.0,7.0,84,0.00,,,0.00,WeatherCatV1.02B3,2013-02-23 12:17:00,
2013-02-23 07:22:00,26.4,22.0,29.44,West,273,5.0,10.0,83,0.00,,,0.00,WeatherCatV1.02B3,2013-02-23 12:22:00,
2013-02-23 07:27:00,26.3,21.9,29.44,SW,225,6.0,7.0,83,0.00,,,0.00,WeatherCatV1.02B3,2013-02-23 12:27:00,
2013-02-23 07:32:00,26.3,22.1,29.44,WSW,242,4.0,5.0,84,0.00,,,0.00,WeatherCatV1.02B3,2013-02-23 12:32:00,
2013-02-23 07:37:00,26.2,21.8,29.44,WSW,255,9.0,11.0,83,0.00,,,0.00,WeatherCatV1.02B3,2013-02-23 12:37:00,
2013-02-23 07:42:00,26.1,21.9,29.44,SW,235,6.0,8.0,84,0.00,,,0.00,WeatherCatV1.02B3,2013-02-23 12:42:00,
2013-02-23 07:47:00,26.1,21.9,29.45,WSW,256,2.0,4.0,84,0.00,,,0.00,WeatherCatV1.02B3,2013-02-23 12:47:00,
2013-02-23 07:52:00,26.1,21.9,29.45,WSW,248,3.0,5.0,84,0.00,,,0.00,WeatherCatV1.02B3,2013-02-23 12:52:00,
2013-02-23 07:57:00,26.1,21.9,29.45,West,268,3.0,10.0,84,0.00,,,0.00,WeatherCatV1.02B3,2013-02-23 12:57:00,
2013-02-23 08:02:00,26.0,21.6,29.44,WSW,254,3.0,7.0,83,0.00,,,0.00,WeatherCatV1.02B3,2013-02-23 13:02:00,
2013-02-23 08:07:00,26.0,21.6,29.45,WSW,257,3.0,4.0,83,0.00,,,0.00,WeatherCatV1.02B3,2013-02-23 13:07:00,
2013-02-23 08:12:00,26.0,21.6,29.44,WSW,246,2.0,6.0,83,0.00,,,0.00,WeatherCatV1.02B3,2013-02-23 13:12:00,
2013-02-23 08:17:00,26.0,21.6,29.44,SSW,210,2.0,8.0,83,0.00,,,0.00,WeatherCatV1.02B3,2013-02-23 13:17:00,
2013-02-23 08:22:00,26.1,21.7,29.44,SW,221,2.0,4.0,83,0.00,,,0.00,WeatherCatV1.02B3,2013-02-23 13:22:00,
2013-02-23 08:27:00,26.1,21.7,29.44,SW,218,3.0,3.0,83,0.00,,,0.00,WeatherCatV1.02B3,2013-02-23 13:27:00,
2013-02-23 08:32:00,26.2,21.8,29.44,WSW,242,4.0,6.0,83,0.00,,,0.00,WeatherCatV1.02B3,2013-02-23 13:32:00,
2013-02-23 08:37:00,26.3,21.6,29.44,WSW,248,4.0,7.0,82,0.00,,,0.00,WeatherCatV1.02B3,2013-02-23 13:37:00,
2013-02-23 08:42:00,26.3,21.6,29.44,WSW,255,6.0,7.0,82,0.00,,,0.00,WeatherCatV1.02B3,2013-02-23 13:42:00,
2013-02-23 08:47:00,26.4,21.4,29.44,WSW,246,8.0,8.0,81,0.00,,,0.00,WeatherCatV1.02B3,2013-02-23 13:47:00,
2013-02-23 08:52:00,26.4,21.4,29.44,WSW,242,5.0,9.0,81,0.00,,,0.00,WeatherCatV1.02B3,2013-02-23 13:52:00,
2013-02-23 08:57:00,26.4,21.4,29.44,WSW,246,4.0,6.0,81,0.00,,,0.00,WeatherCatV1.02B3,2013-02-23 13:57:00,
2013-02-23 09:02:00,26.4,21.4,29.44,WSW,256,3.0,4.0,81,0.00,,,0.00,WeatherCatV1.02B3,2013-02-23 14:02:00,
2013-02-23 09:07:00,26.5,21.5,29.44,South,188,4.0,8.0,81,0.00,,,0.00,WeatherCatV1.02B3,2013-02-23 14:07:00,
2013-02-23 09:12:00,26.5,21.5,29.44,SW,229,5.0,9.0,81,0.00,,,0.00,WeatherCatV1.02B3,2013-02-23 14:12:00,
2013-02-23 09:17:00,26.5,21.5,29.43,WSW,238,6.0,9.0,81,0.00,,,0.00,WeatherCatV1.02B3,2013-02-23 14:17:00,
2013-02-23 09:22:00,26.6,21.6,29.43,West,265,3.0,5.0,81,0.00,,,0.00,WeatherCatV1.02B3,2013-02-23 14:22:00,
2013-02-23 09:27:00,26.7,21.4,29.43,SW,228,3.0,6.0,80,0.00,,,0.00,WeatherCatV1.02B3,2013-02-23 14:27:00,
2013-02-23 09:32:00,26.7,21.4,29.43,SW,229,5.0,7.0,80,0.00,,,0.00,WeatherCatV1.02B3,2013-02-23 14:32:00,
2013-02-23 09:37:00,26.8,21.2,29.43,WSW,242,4.0,4.0,79,0.00,,,0.00,WeatherCatV1.02B3,2013-02-23 14:37:00,
2013-02-23 09:42:00,26.9,21.0,29.44,WSW,257,4.0,8.0,78,0.00,,,0.00,WeatherCatV1.02B3,2013-02-23 14:42:00,
2013-02-23 09:47:00,27.1,21.2,29.43,WSW,249,4.0,6.0,78,0.00,,,0.00,WeatherCatV1.02B3,2013-02-23 14:47:00,
2013-02-23 09:52:00,27.3,21.1,29.43,SW,226,4.0,5.0,77,0.00,,,0.00,WeatherCatV1.02B3,2013-02-23 14:52:00,
2013-02-23 09:57:00,27.6,21.4,29.43,West,259,5.0,7.0,77,0.00,,,0.00,WeatherCatV1.02B3,2013-02-23 14:57:00,
2013-02-23 10:03:00,27.8,21.2,29.43,SW,219,3.0,5.0,76,0.00,,,0.00,WeatherCatV1.02B3,2013-02-23 15:03:00,
2013-02-23 10:08:00,28.1,21.2,29.43,SW,222,3.0,10.0,75,0.00,,,0.00,WeatherCatV1.02B3,2013-02-23 15:08:00,
2013-02-23 10:13:00,28.1,21.2,29.43,SW,227,4.0,6.0,75,0.00,,,0.00,WeatherCatV1.02B3,2013-02-23 15:13:00,
2013-02-23 10:18:00,28.0,21.1,29.43,WSW,238,5.0,8.0,75,0.00,,,0.00,WeatherCatV1.02B3,2013-02-23 15:18:00,
2013-02-23 10:23:00,28.0,21.1,29.44,West,264,4.0,10.0,75,0.00,,,0.00,WeatherCatV1.02B3,2013-02-23 15:23:00,
2013-02-23 10:28:00,27.8,20.9,29.44,WSW,249,4.0,10.0,75,0.00,,,0.00,WeatherCatV1.02B3,2013-02-23 15:28:00,
2013-02-23 10:33:00,27.8,20.9,29.44,WSW,250,6.0,7.0,75,0.00,,,0.00,WeatherCatV1.02B3,2013-02-23 15:33:00,
2013-02-23 10:38:00,27.6,20.4,29.44,West,276,5.0,8.0,74,0.00,,,0.00,WeatherCatV1.02B3,2013-02-23 15:38:00,
2013-02-23 10:43:00,27.6,20.4,29.44,West,271,4.0,9.0,74,0.00,,,0.00,WeatherCatV1.02B3,2013-02-23 15:43:00,
2013-02-23 10:48:00,27.6,20.4,29.44,West,269,5.0,7.0,74,0.00,,,0.00,WeatherCatV1.02B3,2013-02-23 15:48:00,
2013-02-23 10:53:00,27.6,20.4,29.44,WSW,248,5.0,10.0,74,0.00,,,0.00,WeatherCatV1.02B3,2013-02-23 15:53:00,
2013-02-23 10:58:00,27.7,20.5,29.44,West,262,3.0,5.0,74,0.00,,,0.00,WeatherCatV1.02B3,2013-02-23 15:58:00,
2013-02-23 11:03:00,27.8,20.3,29.44,WSW,250,6.0,8.0,73,0.00,,,0.00,WeatherCatV1.02B3,2013-02-23 16:03:00,
2013-02-23 11:08:00,27.9,20.4,29.44,WSW,253,2.0,6.0,73,0.00,,,0.00,WeatherCatV1.02B3,2013-02-23 16:08:00,
2013-02-23 11:13:00,27.9,20.4,29.44,WNW,283,3.0,7.0,73,0.00,,,0.00,WeatherCatV1.02B3,2013-02-23 16:13:00,
2013-02-23 11:18:00,27.8,20.3,29.44,West,267,5.0,9.0,73,0.00,,,0.00,WeatherCatV1.02B3,2013-02-23 16:18:00,
2013-02-23 11:23:00,27.7,20.2,29.44,WNW,288,6.0,6.0,73,0.00,,,0.00,WeatherCatV1.02B3,2013-02-23 16:23:00,
2013-02-23 11:28:00,27.7,20.5,29.44,WSW,254,4.0,8.0,74,0.00,,,0.00,WeatherCatV1.02B3,2013-02-23 16:28:00,
2013-02-23 11:33:00,27.5,19.7,29.44,West,260,4.0,6.0,72,0.00,,,0.00,WeatherCatV1.02B3,2013-02-23 16:33:00,
2013-02-23 11:38:00,27.5,19.4,29.44,WSW,238,6.0,8.0,71,0.00,,,0.00,WeatherCatV1.02B3,2013-02-23 16:38:00,
2013-02-23 11:43:00,27.8,19.3,29.44,WSW,250,4.0,8.0,70,0.00,,,0.00,WeatherCatV1.02B3,2013-02-23 16:43:00,
2013-02-23 11:48:00,27.9,19.4,29.44,WSW,243,5.0,10.0,70,0.00,,,0.00,WeatherCatV1.02B3,2013-02-23 16:48:00,
2013-02-23 11:53:00,28.3,19.8,29.44,West,259,6.0,9.0,70,0.00,,,0.00,WeatherCatV1.02B3,2013-02-23 16:53:00,
2013-02-23 11:58:00,29.3,20.8,29.45,West,262,4.0,5.0,70,0.00,,,0.00,WeatherCatV1.02B3,2013-02-23 16:58:00,
2013-02-23 12:03:00,29.4,19.5,29.45,SW,235,4.0,8.0,66,0.00,,,0.00,WeatherCatV1.02B3,2013-02-23 17:03:00,
2013-02-23 12:08:00,29.2,18.9,29.44,WSW,245,5.0,6.0,65,0.00,,,0.00,WeatherCatV1.02B3,2013-02-23 17:08:00,
2013-02-23 12:13:00,29.3,20.1,29.45,WSW,256,6.0,7.0,68,0.00,,,0.00,WeatherCatV1.02B3,2013-02-23 17:13:00,
2013-02-23 12:18:00,29.2,20.3,29.45,West,267,4.0,9.0,69,0.00,,,0.00,WeatherCatV1.02B3,2013-02-23 17:18:00,
2013-02-23 12:23:00,29.0,20.5,29.45,WSW,243,4.0,9.0,70,0.00,,,0.00,WeatherCatV1.02B3,2013-02-23 17:23:00,
2013-02-23 12:28:00,29.2,21.3,29.44,WNW,287,5.0,7.0,72,0.00,,,0.00,WeatherCatV1.02B3,2013-02-23 17:28:00,
2013-02-23 12:33:00,28.8,20.9,29.44,West,260,4.0,6.0,72,0.00,,,0.00,WeatherCatV1.02B3,2013-02-23 17:33:00,
2013-02-23 12:38:00,28.6,20.4,29.44,WSW,250,6.0,9.0,71,0.00,,,0.00,WeatherCatV1.02B3,2013-02-23 17:38:00,
2013-02-23 12:43:00,28.4,20.9,29.44,SW,233,3.0,8.0,73,0.00,,,0.00,WeatherCatV1.02B3,2013-02-23 17:43:00,
2013-02-23 12:48:00,28.9,21.4,29.43,WSW,242,7.0,7.0,73,0.00,,,0.00,WeatherCatV1.02B3,2013-02-23 17:48:00,
2013-02-23 12:53:00,29.0,21.4,29.43,West,266,3.0,8.0,73,0.00,,,0.00,WeatherCatV1.02B3,2013-02-23 17:53:00,
2013-02-23 12:58:00,28.6,21.4,29.43,West,262,5.0,12.0,74,0.00,,,0.00,WeatherCatV1.02B3,2013-02-23 17:58:00,
2013-02-23 13:03:00,28.6,21.7,29.43,SW,228,3.0,7.0,75,0.00,,,0.00,WeatherCatV1.02B3,2013-02-23 18:03:00,
2013-02-23 13:08:00,28.6,21.4,29.43,WSW,250,4.0,8.0,74,0.00,,,0.00,WeatherCatV1.02B3,2013-02-23 18:08:00,
2013-02-23 13:13:00,28.6,21.4,29.42,West,259,2.0,12.0,74,0.00,,,0.00,WeatherCatV1.02B3,2013-02-23 18:13:00,
2013-02-23 13:18:00,28.7,21.5,29.42,WSW,250,6.0,9.0,74,0.00,,,0.00,WeatherCatV1.02B3,2013-02-23 18:18:00,
2013-02-23 13:23:00,28.9,21.7,29.42,West,262,7.0,10.0,74,0.00,,,0.00,WeatherCatV1.02B3,2013-02-23 18:23:00,
2013-02-23 13:28:00,29.0,21.8,29.42,West,269,4.0,11.0,74,0.00,,,0.00,WeatherCatV1.02B3,2013-02-23 18:28:00,
2013-02-23 13:33:00,29.2,21.3,29.42,WSW,257,7.0,9.0,72,0.00,,,0.00,WeatherCatV1.02B3,2013-02-23 18:33:00,
2013-02-23 13:38:00,29.4,21.5,29.42,WSW,255,4.0,10.0,72,0.00,,,0.00,WeatherCatV1.02B3,2013-02-23 18:38:00,
2013-02-23 13:43:00,29.8,20.9,29.42,WSW,257,6.0,12.0,69,0.00,,,0.00,WeatherCatV1.02B3,2013-02-23 18:43:00,
2013-02-23 13:48:00,30.0,21.8,29.41,WSW,243,4.0,5.0,71,0.00,,,0.00,WeatherCatV1.02B3,2013-02-23 18:48:00,
2013-02-23 13:53:00,29.6,21.0,29.41,WNW,290,3.0,10.0,70,0.00,,,0.00,WeatherCatV1.02B3,2013-02-23 18:53:00,
2013-02-23 13:58:00,29.2,21.3,29.41,West,277,8.0,11.0,72,0.00,,,0.00,WeatherCatV1.02B3,2013-02-23 18:58:00,
2013-02-23 14:03:00,28.8,20.9,29.41,West,264,3.0,8.0,72,0.00,,,0.00,WeatherCatV1.02B3,2013-02-23 19:03:00,
2013-02-23 14:08:00,29.1,21.2,29.41,West,280,7.0,12.0,72,0.00,,,0.00,WeatherCatV1.02B3,2013-02-23 19:08:00,
2013-02-23 14:13:00,28.8,21.6,29.41,West,264,7.0,9.0,74,0.00,,,0.00,WeatherCatV1.02B3,2013-02-23 19:13:00,
2013-02-23 14:18:00,28.6,21.4,29.41,West,280,5.0,9.0,74,0.00,,,0.00,WeatherCatV1.02B3,2013-02-23 19:18:00,
2013-02-23 14:23:00,28.6,21.4,29.41,West,259,3.0,11.0,74,0.00,,,0.00,WeatherCatV1.02B3,2013-02-23 19:23:00,
2013-02-23 14:28:00,28.8,21.6,29.41,WSW,243,5.0,6.0,74,0.00,,,0.00,WeatherCatV1.02B3,2013-02-23 19:28:00,
2013-02-23 14:33:00,28.9,22.0,29.41,WNW,284,3.0,9.0,75,0.00,,,0.00,WeatherCatV1.02B3,2013-02-23 19:33:00,
2013-02-23 14:38:00,28.7,21.5,29.41,WSW,245,5.0,10.0,74,0.00,,,0.00,WeatherCatV1.02B3,2013-02-23 19:38:00,
2013-02-23 14:43:00,28.5,21.3,29.41,WSW,255,6.0,12.0,74,0.00,,,0.00,WeatherCatV1.02B3,2013-02-23 19:43:00,
2013-02-23 14:48:00,28.2,21.6,29.41,WSW,238,8.0,11.0,76,0.00,,,0.00,WeatherCatV1.02B3,2013-02-23 19:48:00,
2013-02-23 14:53:00,28.2,21.6,29.42,WSW,254,5.0,8.0,76,0.00,,,0.00,WeatherCatV1.02B3,2013-02-23 19:53:00,
2013-02-23 14:58:00,28.1,21.5,29.42,WNW,285,3.0,9.0,76,0.00,,,0.00,WeatherCatV1.02B3,2013-02-23 19:58:00,
2013-02-23 15:03:00,28.2,21.6,29.42,WSW,246,9.0,9.0,76,0.00,,,0.00,WeatherCatV1.02B3,2013-02-23 20:03:00,
2013-02-23 15:08:00,28.1,21.5,29.41,West,265,5.0,9.0,76,0.00,,,0.00,WeatherCatV1.02B3,2013-02-23 20:08:00,
2013-02-23 15:13:00,28.0,21.7,29.42,West,269,6.0,8.0,77,0.00,,,0.00,WeatherCatV1.02B3,2013-02-23 20:13:00,
2013-02-23 15:18:00,28.0,22.0,29.42,WSW,250,5.0,5.0,78,0.00,,,0.00,WeatherCatV1.02B3,2013-02-23 20:18:00,
2013-02-23 15:23:00,28.2,21.9,29.41,WSW,240,3.0,4.0,77,0.00,,,0.00,WeatherCatV1.02B3,2013-02-23 20:23:00,
2013-02-23 15:28:00,28.4,21.5,29.42,West,270,3.0,7.0,75,0.00,,,0.00,WeatherCatV1.02B3,2013-02-23 20:28:00,
2013-02-23 15:33:00,28.4,21.2,29.42,WSW,252,5.0,8.0,74,0.00,,,0.00,WeatherCatV1.02B3,2013-02-23 20:33:00,
2013-02-23 15:38:00,28.2,21.0,29.42,West,280,4.0,9.0,74,0.00,,,0.00,WeatherCatV1.02B3,2013-02-23 20:38:00,
2013-02-23 15:43:00,28.0,21.4,29.42,West,262,11.0,11.0,76,0.00,,,0.00,WeatherCatV1.02B3,2013-02-23 20:43:00,
2013-02-23 15:48:00,27.8,21.5,29.42,West,263,5.0,9.0,77,0.00,,,0.00,WeatherCatV1.02B3,2013-02-23 20:48:00,
2013-02-23 15:53:00,27.7,20.8,29.42,West,271,5.0,11.0,75,0.00,,,0.00,WeatherCatV1.02B3,2013-02-23 20:53:00,
2013-02-23 15:58:00,27.8,21.5,29.42,West,269,5.0,6.0,77,0.00,,,0.00,WeatherCatV1.02B3,2013-02-23 20:58:00,
2013-02-23 16:03:00,27.8,21.2,29.42,West,267,4.0,5.0,76,0.00,,,0.00,WeatherCatV1.02B3,2013-02-23 21:03:00,
2013-02-23 16:08:00,27.8,20.9,29.42,West,264,4.0,10.0,75,0.00,,,0.00,WeatherCatV1.02B3,2013-02-23 21:08:00,
2013-02-23 16:13:00,27.7,20.8,29.42,WSW,257,6.0,7.0,75,0.00,,,0.00,WeatherCatV1.02B3,2013-02-23 21:13:00,
2013-02-23 16:18:00,27.7,20.8,29.42,WSW,246,5.0,6.0,75,0.00,,,0.00,WeatherCatV1.02B3,2013-02-23 21:18:00,
2013-02-23 16:23:00,27.5,20.9,29.42,WNW,284,6.0,11.0,76,0.00,,,0.00,WeatherCatV1.02B3,2013-02-23 21:23:00,
2013-02-23 16:28:00,27.4,21.2,29.42,West,271,3.0,10.0,77,0.00,,,0.00,WeatherCatV1.02B3,2013-02-23 21:28:00,
2013-02-23 16:33:00,27.2,21.3,29.42,West,267,4.0,9.0,78,0.00,,,0.00,WeatherCatV1.02B3,2013-02-23 21:33:00,
2013-02-23 16:38:00,27.2,21.0,29.42,WSW,255,6.0,14.0,77,0.00,,,0.00,WeatherCatV1.02B3,2013-02-23 21:38:00,
2013-02-23 16:43:00,27.1,20.9,29.42,WSW,257,6.0,10.0,77,0.00,,,0.00,WeatherCatV1.02B3,2013-02-23 21:43:00,
2013-02-23 16:48:00,27.1,21.2,29.42,West,272,3.0,6.0,78,0.00,,,0.00,WeatherCatV1.02B3,2013-02-23 21:48:00,
2013-02-23 16:53:00,27.0,21.4,29.42,West,280,4.0,5.0,79,0.00,,,0.00,WeatherCatV1.02B3,2013-02-23 21:53:00,
2013-02-23 16:58:00,27.0,21.7,29.42,WSW,248,9.0,9.0,80,0.00,,,0.00,WeatherCatV1.02B3,2013-02-23 21:58:00,
2013-02-23 17:03:00,26.9,21.6,29.42,West,262,4.0,9.0,80,0.00,,,0.00,WeatherCatV1.02B3,2013-02-23 22:03:00,
2013-02-23 17:08:00,26.8,21.5,29.42,West,269,8.0,13.0,80,0.00,,,0.00,WeatherCatV1.02B3,2013-02-23 22:08:00,
2013-02-23 17:13:00,26.8,21.2,29.42,WNW,285,5.0,8.0,79,0.00,,,0.00,WeatherCatV1.02B3,2013-02-23 22:13:00,
2013-02-23 17:18:00,26.9,21.6,29.42,West,262,4.0,9.0,80,0.00,,,0.00,WeatherCatV1.02B3,2013-02-23 22:18:00,
2013-02-23 17:23:00,26.9,21.3,29.42,West,259,3.0,8.0,79,0.00,,,0.00,WeatherCatV1.02B3,2013-02-23 22:23:00,
2013-02-23 17:28:00,26.7,21.4,29.42,West,259,4.0,7.0,80,0.00,,,0.00,WeatherCatV1.02B3,2013-02-23 22:28:00,
2013-02-23 17:33:00,26.7,21.7,29.43,West,271,3.0,4.0,81,0.00,,,0.00,WeatherCatV1.02B3,2013-02-23 22:33:00,
2013-02-23 17:38:00,26.5,21.8,29.43,WNW,287,4.0,7.0,82,0.00,,,0.00,WeatherCatV1.02B3,2013-02-23 22:38:00,
2013-02-23 17:43:00,26.5,21.8,29.43,West,264,2.0,3.0,82,0.00,,,0.00,WeatherCatV1.02B3,2013-02-23 22:43:00,
2013-02-23 17:48:00,26.6,21.9,29.43,WSW,253,2.0,5.0,82,0.00,,,0.00,WeatherCatV1.02B3,2013-02-23 22:48:00,
2013-02-23 17:53:00,26.6,21.6,29.43,West,269,3.0,3.0,81,0.00,,,0.00,WeatherCatV1.02B3,2013-02-23 22:53:00,
2013-02-23 17:58:00,26.6,21.6,29.43,WSW,243,1.0,3.0,81,0.00,,,0.00,WeatherCatV1.02B3,2013-02-23 22:58:00,
2013-02-23 18:03:00,26.6,21.6,29.43,SW,235,2.0,5.0,81,0.00,,,0.00,WeatherCatV1.02B3,2013-02-23 23:03:00,
2013-02-23 18:08:00,26.6,21.6,29.43,WSW,256,3.0,4.0,81,0.00,,,0.00,WeatherCatV1.02B3,2013-02-23 23:08:00,
2013-02-23 18:13:00,26.5,21.8,29.43,WSW,242,2.0,3.0,82,0.00,,,0.00,WeatherCatV1.02B3,2013-02-23 23:13:00,
2013-02-23 18:18:00,26.5,21.8,29.43,West,273,3.0,4.0,82,0.00,,,0.00,WeatherCatV1.02B3,2013-02-23 23:18:00,
2013-02-23 18:23:00,26.4,21.7,29.43,West,264,2.0,8.0,82,0.00,,,0.00,WeatherCatV1.02B3,2013-02-23 23:23:00,
2013-02-23 18:28:00,26.4,21.7,29.43,West,260,2.0,6.0,82,0.00,,,0.00,WeatherCatV1.02B3,2013-02-23 23:28:00,
2013-02-23 18:33:00,26.4,22.0,29.43,WNW,284,1.0,3.0,83,0.00,,,0.00,WeatherCatV1.02B3,2013-02-23 23:33:00,
2013-02-23 18:38:00,26.4,22.0,29.43,WSW,249,3.0,6.0,83,0.00,,,0.00,WeatherCatV1.02B3,2013-02-23 23:38:00,
2013-02-23 18:43:00,26.5,21.8,29.44,West,267,3.0,3.0,82,0.00,,,0.00,WeatherCatV1.02B3,2013-02-23 23:43:00,
2013-02-23 18:48:00,26.5,21.8,29.44,WSW,245,2.0,3.0,82,0.00,,,0.00,WeatherCatV1.02B3,2013-02-23 23:48:00,
2013-02-23 18:53:00,26.5,21.8,29.44,SW,235,4.0,5.0,82,0.00,,,0.00,WeatherCatV1.02B3,2013-02-23 23:53:00,
2013-02-23 18:58:00,26.6,21.3,29.44,WSW,249,4.0,4.0,80,0.00,,,0.00,WeatherCatV1.02B3,2013-02-23 23:58:00,
2013-02-23 19:03:00,26.6,21.0,29.44,SW,229,3.0,9.0,79,0.00,,,0.00,WeatherCatV1.02B3,2013-02-24 00:03:00,
2013-02-23 19:08:00,26.6,21.0,29.44,WSW,246,4.0,5.0,79,0.00,,,0.00,WeatherCatV1.02B3,2013-02-24 00:08:00,
2013-02-23 19:13:00,26.6,20.7,29.45,WSW,245,5.0,7.0,78,0.00,,,0.00,WeatherCatV1.02B3,2013-02-24 00:13:00,
2013-02-23 19:18:00,26.6,21.0,29.45,WSW,249,3.0,4.0,79,0.00,,,0.00,WeatherCatV1.02B3,2013-02-24 00:18:00,
2013-02-23 19:23:00,26.6,21.3,29.45,WSW,245,3.0,7.0,80,0.00,,,0.00,WeatherCatV1.02B3,2013-02-24 00:23:00,
2013-02-23 19:28:00,26.6,21.3,29.45,West,271,2.0,7.0,80,0.00,,,0.00,WeatherCatV1.02B3,2013-02-24 00:28:00,
2013-02-23 19:33:00,26.6,21.3,29.45,WSW,252,5.0,8.0,80,0.00,,,0.00,WeatherCatV1.02B3,2013-02-24 00:33:00,
2013-02-23 19:38:00,26.6,21.3,29.45,WSW,248,2.0,3.0,80,0.00,,,0.00,WeatherCatV1.02B3,2013-02-24 00:38:00,
2013-02-23 19:43:00,26.6,21.0,29.45,West,259,2.0,3.0,79,0.00,,,0.00,WeatherCatV1.02B3,2013-02-24 00:43:00,
2013-02-23 19:48:00,26.6,21.0,29.45,West,280,4.0,8.0,79,0.00,,,0.00,WeatherCatV1.02B3,2013-02-24 00:48:00,
2013-02-23 19:53:00,26.6,21.0,29.45,West,268,1.0,4.0,79,0.00,,,0.00,WeatherCatV1.02B3,2013-02-24 00:53:00,
2013-02-23 19:58:00,26.6,21.0,29.45,WSW,254,5.0,7.0,79,0.00,,,0.00,WeatherCatV1.02B3,2013-02-24 00:58:00,
2013-02-23 20:03:00,26.6,21.0,29.45,West,259,3.0,6.0,79,0.00,,,0.00,WeatherCatV1.02B3,2013-02-24 01:03:00,
2013-02-23 20:08:00,26.7,21.4,29.45,West,276,5.0,10.0,80,0.00,,,0.00,WeatherCatV1.02B3,2013-02-24 01:08:00,
2013-02-23 20:13:00,26.7,21.4,29.45,West,264,4.0,7.0,80,0.00,,,0.00,WeatherCatV1.02B3,2013-02-24 01:13:00,
2013-02-23 20:18:00,26.6,21.3,29.45,SW,235,4.0,4.0,80,0.00,,,0.00,WeatherCatV1.02B3,2013-02-24 01:18:00,
2013-02-23 20:23:00,26.7,21.4,29.46,West,267,6.0,7.0,80,0.00,,,0.00,WeatherCatV1.02B3,2013-02-24 01:23:00,
2013-02-23 20:28:00,26.7,21.7,29.46,West,271,1.0,3.0,81,0.00,,,0.00,WeatherCatV1.02B3,2013-02-24 01:28:00,
2013-02-23 20:33:00,26.8,21.8,29.46,WSW,239,3.0,4.0,81,0.00,,,0.00,WeatherCatV1.02B3,2013-02-24 01:33:00,
2013-02-23 20:38:00,26.8,21.5,29.46,WSW,248,4.0,6.0,80,0.00,,,0.00,WeatherCatV1.02B3,2013-02-24 01:38:00,
2013-02-23 20:43:00,26.8,21.5,29.46,West,278,2.0,6.0,80,0.00,,,0.00,WeatherCatV1.02B3,2013-02-24 01:43:00,
2013-02-23 20:48:00,26.7,21.4,29.46,West,262,3.0,10.0,80,0.00,,,0.00,WeatherCatV1.02B3,2013-02-24 01:48:00,
2013-02-23 20:53:00,26.7,21.4,29.46,West,266,6.0,6.0,80,0.00,,,0.00,WeatherCatV1.02B3,2013-02-24 01:53:00,
2013-02-23 20:58:00,26.7,21.4,29.46,WSW,252,3.0,5.0,80,0.00,,,0.00,WeatherCatV1.02B3,2013-02-24 01:58:00,
2013-02-23 21:03:00,26.6,21.0,29.46,WSW,240,4.0,6.0,79,0.00,,,0.00,WeatherCatV1.02B3,2013-02-24 02:03:00,
2013-02-23 21:08:00,26.6,21.0,29.46,WSW,250,3.0,6.0,79,0.00,,,0.00,WeatherCatV1.02B3,2013-02-24 02:08:00,
2013-02-23 21:13:00,26.5,20.9,29.46,WSW,257,2.0,5.0,79,0.00,,,0.00,WeatherCatV1.02B3,2013-02-24 02:13:00,
2013-02-23 21:18:00,26.5,20.9,29.46,WSW,256,5.0,7.0,79,0.00,,,0.00,WeatherCatV1.02B3,2013-02-24 02:18:00,
2013-02-23 21:23:00,26.5,20.9,29.46,West,271,6.0,6.0,79,0.00,,,0.00,WeatherCatV1.02B3,2013-02-24 02:23:00,
2013-02-23 21:28:00,26.4,20.8,29.46,West,264,4.0,5.0,79,0.00,,,0.00,WeatherCatV1.02B3,2013-02-24 02:28:00,
2013-02-23 21:33:00,26.4,21.1,29.46,WSW,241,6.0,7.0,80,0.00,,,0.00,WeatherCatV1.02B3,2013-02-24 02:33:00,
2013-02-23 21:38:00,26.5,20.9,29.46,WSW,252,3.0,6.0,79,0.00,,,0.00,WeatherCatV1.02B3,2013-02-24 02:38:00,
2013-02-23 21:43:00,26.5,20.9,29.46,West,266,4.0,6.0,79,0.00,,,0.00,WeatherCatV1.02B3,2013-02-24 02:43:00,
2013-02-23 21:48:00,26.5,20.9,29.46,West,267,3.0,6.0,79,0.00,,,0.00,WeatherCatV1.02B3,2013-02-24 02:48:00,
2013-02-23 21:53:00,26.5,20.9,29.46,WSW,245,4.0,10.0,79,0.00,,,0.00,WeatherCatV1.02B3,2013-02-24 02:53:00,
2013-02-23 21:58:00,26.5,20.9,29.46,WSW,249,4.0,7.0,79,0.00,,,0.00,WeatherCatV1.02B3,2013-02-24 02:58:00,
2013-02-23 22:03:00,26.5,20.9,29.46,WSW,243,4.0,8.0,79,0.00,,,0.00,WeatherCatV1.02B3,2013-02-24 03:03:00,
2013-02-23 22:08:00,26.5,20.9,29.46,SW,235,2.0,5.0,79,0.00,,,0.00,WeatherCatV1.02B3,2013-02-24 03:08:00,
2013-02-23 22:13:00,26.6,20.7,29.45,West,264,3.0,6.0,78,0.00,,,0.00,WeatherCatV1.02B3,2013-02-24 03:13:00,
2013-02-23 22:18:00,26.6,21.0,29.46,WSW,243,5.0,7.0,79,0.00,,,0.00,WeatherCatV1.02B3,2013-02-24 03:18:00,
2013-02-23 22:23:00,26.6,21.0,29.46,West,269,4.0,5.0,79,0.00,,,0.00,WeatherCatV1.02B3,2013-02-24 03:23:00,
2013-02-23 22:28:00,26.6,21.0,29.46,WSW,254,1.0,5.0,79,0.00,,,0.00,WeatherCatV1.02B3,2013-02-24 03:28:00,
2013-02-23 22:33:00,26.6,21.0,29.45,WSW,239,5.0,7.0,79,0.00,,,0.00,WeatherCatV1.02B3,2013-02-24 03:33:00,
2013-02-23 22:38:00,26.6,21.0,29.45,WSW,256,3.0,4.0,79,0.00,,,0.00,WeatherCatV1.02B3,2013-02-24 03:38:00,
2013-02-23 22:43:00,26.6,20.7,29.45,WSW,250,6.0,7.0,78,0.00,,,0.00,WeatherCatV1.02B3,2013-02-24 03:43:00,
2013-02-23 22:48:00,26.7,20.8,29.45,West,273,3.0,6.0,78,0.00,,,0.00,WeatherCatV1.02B3,2013-02-24 03:48:00,
2013-02-23 22:53:00,26.7,20.8,29.45,WSW,238,7.0,9.0,78,0.00,,,0.00,WeatherCatV1.02B3,2013-02-24 03:53:00,
2013-02-23 22:58:00,26.8,20.9,29.45,West,276,5.0,10.0,78,0.00,,,0.00,WeatherCatV1.02B3,2013-02-24 03:58:00,
2013-02-23 23:03:00,26.9,21.0,29.45,WSW,257,5.0,7.0,78,0.00,,,0.00,WeatherCatV1.02B3,2013-02-24 04:03:00,
2013-02-23 23:08:00,27.0,20.8,29.45,West,264,4.0,6.0,77,0.00,,,0.00,WeatherCatV1.02B3,2013-02-24 04:08:00,
2013-02-23 23:13:00,27.0,21.1,29.45,WSW,249,5.0,6.0,78,0.00,,,0.00,WeatherCatV1.02B3,2013-02-24 04:13:00,
2013-02-23 23:18:00,27.0,21.4,29.45,West,264,2.0,4.0,79,0.00,,,0.00,WeatherCatV1.02B3,2013-02-24 04:18:00,
2013-02-23 23:23:00,27.0,21.4,29.45,West,276,5.0,6.0,79,0.00,,,0.00,WeatherCatV1.02B3,2013-02-24 04:23:00,
2013-02-23 23:28:00,27.1,21.8,29.44,WSW,253,3.0,7.0,80,0.00,,,0.00,WeatherCatV1.02B3,2013-02-24 04:28:00,
2013-02-23 23:33:00,27.1,21.2,29.44,WSW,256,2.0,8.0,78,0.00,,,0.00,WeatherCatV1.02B3,2013-02-24 04:33:00,
2013-02-23 23:38:00,27.1,21.2,29.44,West,269,5.0,5.0,78,0.00,,,0.00,WeatherCatV1.02B3,2013-02-24 04:38:00,
2013-02-23 23:43:00,27.1,21.2,29.44,West,268,4.0,7.0,78,0.00,,,0.00,WeatherCatV1.02B3,2013-02-24 04:43:00,
2013-02-23 23:48:00,27.1,21.5,29.44,WSW,250,4.0,7.0,79,0.00,,,0.00,WeatherCatV1.02B3,2013-02-24 04:48:00,
2013-02-23 23:53:00,27.1,21.5,29.44,West,280,7.0,8.0,79,0.00,,,0.00,WeatherCatV1.02B3,2013-02-24 04:53:00,
2013-02-23 23:58:00,27.2,21.3,29.44,West,278,6.0,6.0,78,0.00,,,0.00,WeatherCatV1.02B3,2013-02-24 04:58:00,